Location: Hall+in+Tirol
(47.2830°N, 11.5170°E)
Time: 10:00:25
(UTC+01:00)

Gurwin Techsat 1B - Visible Passes

Search period start: 25 February 2017 00:00
Search period end: 07 March 2017 00:00
Orbit: 812 x 814 km, 98.6° (Epoch: 24 February)

Date Brightness Start Highest point End Pass type
(mag) Time Alt. Az. Time Alt. Az. Time Alt. Az.
25 Feb 11.1 03:45:25 10° N 03:45:50 12° NNW 03:45:50 12° NNW visible
26 Feb 11.1 03:22:13 10° N 03:22:52 13° N 03:22:52 13° N visible
27 Feb 11.1 02:59:11 10° N 02:59:54 14° N 02:59:54 14° N visible
28 Feb 11.2 02:36:16 10° NNE 02:36:55 14° NNE 02:36:55 14° NNE visible
28 Feb 11.0 04:18:00 10° NNW 04:18:08 10° NNW 04:18:08 10° NNW visible
01 Mar 11.4 02:13:28 10° NNE 02:13:57 13° NNE 02:13:57 13° NNE visible
01 Mar 10.9 03:54:24 10° NNW 03:55:10 13° NNW 03:55:10 13° NNW visible
02 Mar 11.6 01:50:49 10° NNE 01:50:59 11° NNE 01:50:59 11° NNE visible
02 Mar 10.9 03:31:07 10° N 03:32:12 15° NNW 03:32:12 15° NNW visible
03 Mar 10.9 03:08:01 10° N 03:09:14 17° N 03:09:14 17° N visible
04 Mar 11.0 02:45:04 10° N 02:46:16 17° N 02:46:16 17° N visible
04 Mar 10.9 04:27:18 10° NNW 04:27:29 10° NNW 04:27:29 10° NNW visible
05 Mar 11.1 02:22:13 10° NNE 02:23:18 16° NNE 02:23:18 16° NNE visible
05 Mar 10.8 04:03:25 10° NNW 04:04:31 14° NNW 04:04:31 14° NNW visible
06 Mar 11.3 01:59:30 10° NNE 02:00:20 15° NNE 02:00:20 15° NNE visible
06 Mar 10.7 03:40:02 10° N 03:41:33 17° NNW 03:41:33 17° NNW visible
